Weather Roundup
Issued by NWS

Home | Current Version | Previous Version | Text Only | Print | Product List | Glossary On
Versions: 1 2 3 4 5 6 7 8 9 10 11 12 13 14 15 16 17 18 19 20 21 22 23 24 25 26 27 28 29 30 31 32 33 34 35 36 37 38 39 40 41 42 43 44 45 46 47 48 49 50
000
NZUS93 KARX 250210
HRRWXR

CURRENT HOURLY OBSERVATIONS ACROSS
MUCH OF THE UPPER MISSISSIPPI VALLEY
NATIONAL WEATHER SERVICE LA CROSSE WI
800 PM CST SAT FEB 24 2018


...SOUTHEAST MINNESOTA...


CITY           SKY/WX    TMP DP  RH WIND       PRES   REMARKS
ROCHESTER      LGT SNOW  31  31 100 S5        29.53F VSB 3/4 WCI  26
ROCHESTER/MAYO CLOUDY    32  32 100 CALM      29.54F VSB 1/2
WINONA         LGT SNOW  34  34 100 SE7       29.54S WCI  28
AUSTIN         LGT SNOW  30  30 100 S3        29.53F
ALBERT LEA     CLOUDY    30  30 100 CALM      29.53F
DODGE CENTER   LGT SNOW  30  28  93 E3        29.52F
PRESTON        SNOW      32  31  96 SW6       29.55S VSB 1/4 WCI  26
OWATONNA       LGT SNOW  30  28  93 CALM      29.54F
FARIBAULT      LGT SNOW  27  25  93 CALM      29.54F VSB 3/4
$$

...ELSEWHERE IN MINNESOTA...


CITY           SKY/WX    TMP DP  RH WIND       PRES   REMARKS
MINNEAPOLIS    SNOW      29  29 100 E6        29.56F VSB 1/2 WCI  23
INTNL FALLS    CLOUDY    25  14  63 NE7       29.68F WCI  17
DULUTH         SNOW      24  21  88 E24G31    29.57F VSB 1/4 WCI   8
RED WING       SNOW      32  28  86 CALM      29.57S VSB 1/2
REDWOOD FALLS  LGT SNOW  16  14  92 NW8       29.59F FOG     WCI   5
MANKATO        LGT SNOW  25  24  96 NE3       29.54F VSB 1
WORTHINGTON    FLURRIES  19  17  92 W20       29.60S WCI   3
FAIRMONT       LGT SNOW  23  21  92 W14       29.58F FOG     WCI  11
$$

...SOUTHWEST WISCONSIN...


CITY           SKY/WX    TMP DP  RH WIND       PRES   REMARKS
LA CROSSE      LGT SNOW  34  32  92 SE6       29.54F FOG     WCI  29
PRAIRIE DU CHI LGT RAIN  35  34  95 SE3       29.55F
BOSCOBEL       LGT RAIN  38  35  89 E7        29.55F FOG     WCI  33
LONE ROCK      LGT RAIN  35  35 100 E14       29.55F FOG     WCI  26
PLATTEVILLE    FAIR      35  35 100 E17       29.51F WCI  25
FORT MC COY    MIX PCPN  32  32  99 E10G16    29.55F WCI  24
CAMP DOUGLAS   LGT RAIN  32  32 100 E16       29.54F FOG     WCI  21
MAUSTON-NEW LI LGT SNOW  33  32  96 E8G18     29.56F WCI  26
VIROQUA        CLOUDY    33  33 100 SE10      29.51F WCI  24
WIS DELLS      LGT RAIN  34  33  95 E14       29.57F WCI  24
$$

...ELSEWHERE IN WISCONSIN...


CITY           SKY/WX    TMP DP  RH WIND       PRES   REMARKS
MILWAUKEE      LGT RAIN  38  37  97 SE15      29.68F FOG     WCI  29
MADISON        RAIN      36  35  96 SE18G25   29.59F FOG     WCI  26
GREEN BAY      LGT RAIN  34  29  82 E8        29.72F WCI  27
EAU CLAIRE     LGT SNOW  31  29  92 SE12      29.53F VSB 3/4 WCI  22
BLACK RVR FLS  DRIZZLE   33  33 100 SE9G20    29.55F WCI  25
MEDFORD        MIX PCPN  28  26  91 E18G26    29.56F WCI  16
WAUSAU         MIX PCPN  29  25  85 E20G28    29.59F FOG     WCI  16
WIS RAPIDS     FRZ RAIN  32  28  85 SE18G28   29.61F FOG     WCI  20
MARSHFIELD     FRZ RAIN  31  29  92 E20G30    29.55F FOG     WCI  19
RICE LAKE      SNOW      30  29  97 E7        29.57F VSB 1/2 WCI  23
$$

...NORTHEAST IOWA...


CITY           SKY/WX    TMP DP  RH WIND       PRES   REMARKS
WATERLOO       LGT SNOW  32  32 100 SW8       29.57F FOG     WCI  25
DUBUQUE        LGT RAIN  37  35  92 SE10      29.51F FOG     WCI  30
DECORAH        LGT SNOW  34  34 100 S8        29.52F WCI  27
MASON CITY     LGT SNOW  31  30  96 W20       29.56F FOG     WCI  19
CHARLES CITY   LGT SNOW  32  32 100 SW7       29.55F WCI  26
OELWEIN        LGT SNOW  34  34 100 SW13      29.56F WCI  25
$$

...ELSEWHERE IN IOWA...


CITY           SKY/WX    TMP DP  RH WIND       PRES   REMARKS
DES MOINES     CLOUDY    33  29  85 W20G29    29.67R WCI  21
IOWA CITY      LGT RAIN  39  37  92 W12       29.61S WCI  32
FORT DODGE     CLOUDY    26  23  88 W17G25    29.63S WCI  13
MARSHALLTOWN   CLOUDY    32  32 100 W17       29.60R WCI  21
CEDAR RAPIDS   LGT RAIN  37  30  75 W9        29.57F WCI  30
$$

...NORTHERN ILLINOIS...


CITY           SKY/WX    TMP DP  RH WIND       PRES   REMARKS
CHICAGO-OHARE  LGT RAIN  44  41  89 SE17      29.61F
CHICAGO-MIDWAY LGT RAIN  45  44  97 SE17G25   29.63F
MOLINE         LGT RAIN  44  44 100 SE3       29.53F VSB 3/4
ROCKFORD       LGT RAIN  41  40  96 SE13      29.58F FOG
PEORIA         CLOUDY    50  49  96 SE12      29.55F
$$

NOTE: "FAIR" INDICATES FEW OR NO CLOUDS BELOW 12,000 FEET WITH NO
SIGNIFICANT WEATHER AND/OR OBSTRUCTIONS TO VISIBILITY. WIND
SPEEDS ARE IN MILES-PER-HOUR.




USA.gov is the U.S. government's official web portal to all federal, state and local government web resources and services.